TimeEDT,TemperatureF,Dew PointF,Humidity,Sea Level PressureIn,VisibilityMPH,Wind Direction,Wind SpeedMPH,Gust SpeedMPH,PrecipitationIn,Events,Conditions,WindDirDegrees,DateUTC
12:54 AM,63.0,55.0,75,29.72,10.0,SSW,4.6,-,N/A,,Clear,200,2012-10-20 04:54:00
1:54 AM,59.0,52.0,78,29.73,10.0,South,5.8,-,N/A,,Clear,190,2012-10-20 05:54:00
2:54 AM,57.0,51.1,81,29.72,10.0,South,3.5,-,N/A,,Clear,180,2012-10-20 06:54:00
3:54 AM,55.0,48.9,80,29.72,10.0,South,5.8,-,N/A,,Clear,180,2012-10-20 07:54:00
4:54 AM,53.1,48.0,83,29.73,10.0,South,5.8,-,N/A,,Clear,190,2012-10-20 08:54:00
5:54 AM,54.0,48.9,83,29.73,10.0,SSW,4.6,-,N/A,,Clear,210,2012-10-20 09:54:00
6:54 AM,53.1,48.0,83,29.75,10.0,Calm,Calm,-,0.01,,Clear,0,2012-10-20 10:54:00
7:54 AM,54.0,48.0,80,29.76,10.0,Calm,Calm,-,N/A,,Clear,0,2012-10-20 11:54:00
8:54 AM,60.1,50.0,69,29.77,10.0,West,5.8,-,N/A,,Clear,260,2012-10-20 12:54:00
9:54 AM,64.0,50.0,60,29.78,10.0,North,5.8,-,N/A,,Clear,360,2012-10-20 13:54:00
10:54 AM,66.9,48.0,51,29.80,10.0,Variable,5.8,-,N/A,,Clear,0,2012-10-20 14:54:00
11:54 AM,70.0,48.0,46,29.79,10.0,NNE,4.6,-,N/A,,Clear,30,2012-10-20 15:54:00
12:54 PM,71.1,46.0,41,29.78,10.0,NW,3.5,-,N/A,,Clear,310,2012-10-20 16:54:00
1:54 PM,71.1,46.0,41,29.76,10.0,Calm,Calm,-,N/A,,Clear,0,2012-10-20 17:54:00
2:54 PM,72.0,45.0,38,29.75,10.0,Calm,Calm,-,N/A,,Clear,0,2012-10-20 18:54:00
3:54 PM,72.0,46.0,40,29.76,10.0,SW,8.1,-,N/A,,Clear,230,2012-10-20 19:54:00
4:54 PM,70.0,44.1,39,29.78,10.0,WSW,8.1,-,N/A,,Clear,250,2012-10-20 20:54:00
5:54 PM,66.0,44.1,45,29.79,8.0,WNW,4.6,-,N/A,,Clear,300,2012-10-20 21:54:00
6:54 PM,59.0,48.9,69,29.83,10.0,Calm,Calm,-,N/A,,Clear,0,2012-10-20 22:54:00
7:54 PM,57.9,50.0,75,29.85,10.0,Calm,Calm,-,N/A,,Scattered Clouds,0,2012-10-20 23:54:00
8:54 PM,57.0,50.0,77,29.87,10.0,Calm,Calm,-,N/A,,Mostly Cloudy,0,2012-10-21 00:54:00
9:54 PM,55.0,48.9,80,29.89,10.0,Calm,Calm,-,N/A,,Clear,0,2012-10-21 01:54:00
10:54 PM,51.1,46.0,83,29.91,10.0,Calm,Calm,-,N/A,,Partly Cloudy,0,2012-10-21 02:54:00
11:54 PM,53.1,46.0,77,29.91,10.0,Calm,Calm,-,N/A,,Partly Cloudy,0,2012-10-21 03:54:00